Wind_Speed
27 27 26 25 24 23 23 22 20 18 17 17 16 15 14 15 16 17 18 20 21 22 23 23 23 23 22 22 21 19 17 16 16 16 17 18 18 17 16 15 14 12 11 9 8 7 7 7 6 6 5 5 4 4 5 4 4 3 3 2 2 2 3
26 28 27 25 25 26 24 22 20 19 19 20 17 14 12 12 14 16 18 20 21 22 23 24 24 24 24 24 22 20 18 17 17 17 17 18 18 18 17 17 15 14 12 10 9 9 8 8 7 6 6 6 6 6 6 6 6 6 5 6 6 6 6
24 29 27 24 25 26 24 22 21 22 22 22 18 12 11 10 13 16 19 20 21 22 23 23 24 25 25 25 24 22 20 18 18 18 18 18 18 18 18 18 17 15 13 11 11 10 10 9 8 8 7 7 8 8 8 8 8 8 7 7 7 7 7
24 26 26 25 25 26 27 25 25 25 23 22 18 12 11 10 12 15 18 20 21 22 23 23 24 26 26 26 25 23 21 19 19 19 20 20 19 18 18 17 17 16 14 12 13 12 11 11 10 10 9 8 8 8 7 7 7 7 6 6 5 5 5
27 28 27 25 25 28 30 27 25 24 21 21 18 14 12 11 11 13 15 18 20 21 23 24 25 26 27 27 27 25 22 20 20 20 21 21 20 19 18 18 17 16 15 14 14 14 13 13 12 11 10 9 9 8 7 6 5 5 5 4 3 3 3
27 28 27 23 24 29 29 25 23 21 19 21 20 16 15 13 12 12 13 15 17 19 21 23 24 25 26 27 27 26 24 22 21 21 22 22 21 20 19 19 18 17 16 15 15 15 15 14 14 13 11 10 9 8 7 5 4 4 3 2 2 2 2
31 30 30 26 24 25 25 22 22 21 21 22 22 19 17 16 14 13 12 11 13 15 18 20 22 23 25 27 28 27 26 24 23 23 24 23 21 21 20 20 19 18 18 17 16 16 17 16 15 14 13 12 11 9 7 6 5 4 3 2 2 1 0
37 35 35 33 29 26 24 24 24 24 24 23 21 20 16 16 14 13 12 11 10 10 13 17 20 22 25 27 28 28 27 26 25 24 25 24 23 22 21 21 20 20 19 18 18 19 19 18 17 16 15 14 12 10 9 7 6 5 4 3 3 2 2
38 36 38 37 35 31 27 28 28 27 27 24 21 22 20 16 14 14 13 13 12 11 11 13 16 20 24 26 27 28 29 28 27 25 25 25 24 23 22 22 22 21 20 20 20 20 21 20 19 18 17 16 14 12 11 9 8 7 6 5 4 3 4
34 36 41 41 37 32 29 31 31 28 27 25 23 24 24 20 17 16 15 14 14 13 13 13 13 16 20 24 26 28 29 29 29 27 26 25 25 24 24 23 23 22 21 21 21 22 22 22 21 20 19 18 16 15 13 11 10 8 8 7 6 4 5
33 34 37 41 40 33 29 31 32 30 27 25 25 27 27 24 21 19 17 17 16 16 15 14 13 14 16 20 24 26 27 29 29 29 27 26 26 26 25 25 24 23 22 21 22 23 23 23 22 22 21 20 19 17 15 13 12 10 9 9 8 6 5
31 34 33 38 41 34 30 31 32 32 29 27 29 30 29 27 24 22 20 20 20 19 17 16 15 14 14 16 19 23 25 27 28 29 29 28 27 27 27 26 25 25 24 23 23 23 24 24 23 23 23 22 21 20 17 15 14 12 11 11 10 8 7
28 32 33 37 40 36 32 33 33 33 32 31 31 32 31 28 27 25 24 22 22 21 20 18 16 15 15 14 15 17 21 24 26 28 29 29 29 29 29 28 27 26 25 25 24 24 24 25 25 25 25 24 22 21 19 17 16 14 13 12 12 11 9
32 34 35 38 40 39 37 36 36 36 35 34 33 33 33 32 30 28 27 25 24 23 21 20 18 15 15 15 13 13 16 21 24 26 28 29 29 30 30 30 28 27 27 27 26 25 25 25 26 26 26 25 24 22 21 19 17 16 15 14 13 13 11
38 40 42 39 36 35 34 35 36 36 35 35 36 36 36 35 33 32 31 28 26 25 23 21 19 17 16 15 13 12 14 17 20 23 25 27 28 29 30 30 30 29 28 28 27 26 26 26 27 27 26 26 25 23 22 20 19 18 17 16 15 14 13
44 46 47 42 35 33 34 35 36 35 34 34 36 38 38 38 37 35 32 29 27 26 25 23 21 18 17 15 15 14 14 15 16 18 21 24 26 27 28 29 30 30 30 30 29 28 28 27 28 27 27 27 26 24 23 22 21 20 19 18 16 15 15
46 47 47 44 42 41 39 39 38 38 38 37 37 39 40 39 38 36 34 32 29 27 26 24 22 20 18 17 17 16 15 15 15 14 16 19 22 25 26 27 29 29 30 31 31 31 30 29 28 28 28 27 27 25 23 23 22 22 21 19 18 16 16
42 45 46 45 45 44 42 42 41 41 43 44 43 43 42 40 39 38 37 34 30 28 28 26 23 21 20 18 18 18 16 16 15 13 13 15 18 21 23 25 26 28 28 30 32 33 32 30 29 28 29 29 28 26 25 24 24 23 22 21 19 18 17
40 44 45 46 46 44 43 44 42 41 43 45 46 45 43 41 40 39 37 35 32 30 30 28 24 22 22 20 19 18 17 17 16 14 13 14 15 18 21 22 23 25 26 28 30 33 33 31 30 30 30 30 29 28 27 26 25 24 24 22 20 19 18
40 42 44 47 47 44 42 43 43 44 43 44 45 46 45 43 42 40 38 37 35 31 30 29 26 23 23 22 20 18 18 18 18 16 15 14 14 16 18 20 22 23 25 26 28 30 32 32 31 31 31 30 30 30 29 28 27 26 25 24 22 21 19
38 40 43 45 47 47 45 44 44 44 45 45 45 45 45 45 44 42 40 38 36 32 31 30 27 24 24 23 21 19 18 19 19 18 17 15 14 15 16 18 20 22 24 25 26 28 30 31 32 31 31 31 31 31 31 30 29 28 27 26 24 22 21
38 40 41 44 47 48 49 47 46 44 43 45 45 44 45 46 44 41 39 39 37 34 32 31 28 25 25 24 23 21 19 19 20 20 19 17 15 15 16 18 19 20 22 24 25 26 28 30 31 31 31 32 31 31 31 31 30 29 28 28 26 23 21
37 39 41 43 45 47 49 49 48 46 42 41 42 42 44 45 43 40 38 39 38 36 33 31 28 25 25 25 25 22 21 20 21 22 21 19 16 16 17 18 19 20 21 23 24 25 26 28 30 30 31 31 31 31 31 31 31 30 30 29 27 24 22
39 39 40 42 43 45 47 48 47 47 45 43 41 41 42 43 42 40 39 39 39 37 34 31 28 25 24 26 26 24 23 22 22 23 23 21 19 18 18 19 19 20 21 22 23 24 25 27 29 30 30 30 31 31 31 31 31 30 30 30 28 25 23
39 39 39 41 43 45 47 47 47 47 46 45 44 42 42 42 42 41 40 40 40 39 36 33 29 26 25 26 27 26 25 24 24 24 25 24 21 20 20 21 20 21 21 22 23 24 25 26 28 28 29 29 30 30 30 30 30 29 29 29 28 26 24
39 39 39 40 42 44 46 47 47 48 47 46 44 43 43 43 43 43 41 42 42 40 38 34 31 29 27 27 27 27 26 26 25 25 25 25 24 22 21 22 22 22 22 23 23 23 23 25 26 27 27 28 29 29 29 28 28 27 28 28 28 27 25
45 41 40 40 40 43 45 47 48 48 48 46 45 44 43 44 44 44 43 44 43 40 38 36 35 33 30 28 29 29 28 27 27 26 26 27 25 23 22 22 22 22 22 23 24 23 22 23 23 25 25 26 27 27 27 27 27 26 27 27 27 26 25
49 46 43 41 41 42 44 46 48 48 48 48 46 45 44 45 46 46 46 45 43 40 39 40 39 37 33 31 31 31 29 29 28 27 27 28 26 23 22 23 23 23 23 23 24 23 22 21 22 23 24 24 25 25 25 25 26 25 25 26 25 25 23
47 48 46 42 42 43 44 45 47 48 49 49 48 46 46 47 47 48 47 46 44 43 43 43 43 41 37 35 34 33 31 31 29 28 28 29 27 24 23 23 23 23 24 24 23 22 21 21 21 22 23 23 24 24 24 25 25 24 24 24 24 24 23
49 49 47 45 44 44 44 44 45 47 49 49 48 46 46 47 48 48 48 46 45 45 46 45 45 44 41 38 36 35 34 33 31 29 29 29 27 25 24 23 24 24 24 24 23 21 21 21 21 22 22 22 23 23 24 24 24 24 24 23 23 24 23
52 51 49 48 46 45 45 44 43 44 47 48 48 47 46 46 47 48 48 46 45 47 48 47 47 47 45 41 39 37 37 36 33 31 31 30 27 25 24 24 24 24 25 24 22 21 21 22 22 22 22 22 22 22 23 24 23 23 23 24 24 24 23
52 52 51 50 48 47 46 45 43 43 45 46 47 47 46 46 47 48 47 45 45 47 49 48 49 49 47 44 42 40 39 38 36 34 33 31 28 26 25 24 24 24 24 23 22 22 23 23 23 23 22 22 22 23 23 24 24 24 24 25 25 24 24
49 51 51 50 50 48 46 45 44 43 44 44 44 44 45 45 47 49 47 44 44 46 48 49 50 51 49 46 44 43 41 40 38 37 35 32 29 27 25 24 23 23 23 23 23 23 24 24 24 24 23 23 23 24 25 25 25 25 25 25 25 24 23
48 49 51 51 50 48 46 45 44 44 44 43 42 42 44 45 47 48 47 43 43 45 48 51 51 50 48 47 46 45 43 41 39 39 37 34 31 29 26 24 23 22 22 22 23 24 25 26 26 25 25 25 25 26 26 26 26 25 24 24 23 23 21
47 47 49 50 48 47 46 44 44 45 44 43 42 41 43 45 46 46 44 42 43 46 49 51 51 49 47 47 47 46 44 42 41 41 39 35 33 30 26 24 23 22 21 22 24 25 26 27 27 27 26 27 27 27 26 25 25 24 22 21 21 21 20
49 45 47 49 48 47 47 45 44 44 43 42 41 41 43 44 44 45 44 43 43 46 48 49 48 47 47 47 47 46 44 43 43 42 40 38 34 30 27 26 25 23 22 22 23 26 27 27 27 27 27 27 26 25 24 23 22 22 20 19 20 21 21
53 48 47 48 48 47 47 46 44 43 43 42 41 41 41 41 42 43 44 43 43 44 45 46 45 45 46 47 46 45 45 45 45 44 42 39 35 31 29 29 27 24 22 21 23 25 26 26 27 27 27 26 24 23 23 23 23 22 21 21 22 23 23
56 52 49 48 48 48 48 47 45 44 42 42 41 41 40 40 41 41 41 41 42 42 43 43 44 45 47 47 46 47 48 49 48 47 44 41 37 33 31 31 29 26 23 21 22 23 24 25 26 26 26 25 24 24 24 25 25 24 24 23 24 24 25
Wind_Direction
230 230 225 224 224 225 228 230 226 222 229 233 220 202 194 196 204 212 218 221 223 224 225 223 222 220 220 221 220 217 213 206 202 201 202 202 202 203 204 204 207 207 206 203 200 198 199 203 208 208 205 197 187 187 189 188 187 181 171 151 128 108 99
227 228 223 220 223 225 224 223 225 227 233 235 223 198 187 195 204 211 217 219 221 222 224 224 222 220 221 224 224 221 216 208 205 206 208 209 207 206 207 207 208 208 205 199 195 196 198 200 200 190 177 164 155 149 145 142 137 131 124 116 108 102 97
227 231 227 221 224 226 225 223 224 229 233 232 224 199 179 191 205 212 217 218 219 220 222 223 223 222 221 224 227 226 221 213 207 208 212 214 213 211 211 210 210 209 203 196 194 197 197 195 190 179 166 156 148 140 135 131 126 121 115 109 105 98 94
223 233 231 223 222 223 225 225 224 226 227 226 222 201 179 191 207 215 220 221 221 220 220 222 223 223 223 224 227 228 225 219 212 211 214 217 218 217 217 216 214 212 204 196 197 197 197 194 188 180 172 164 155 147 141 136 129 124 119 112 105 97 90
225 234 235 226 224 224 224 224 222 224 226 228 223 201 184 193 205 216 222 224 225 223 222 221 221 222 223 225 228 228 227 224 218 217 218 220 220 220 221 221 219 216 208 201 201 199 198 197 193 187 182 174 167 160 155 151 144 138 133 124 117 105 90
226 233 237 229 224 226 227 226 225 228 231 235 229 206 189 193 202 212 220 223 226 226 226 227 225 224 225 227 230 230 228 225 222 223 224 225 223 221 222 222 221 218 213 208 206 203 203 203 199 196 191 184 179 175 173 175 173 168 163 155 144 129 100
236 241 241 229 221 227 231 232 235 235 233 236 236 222 198 191 200 210 215 221 227 228 229 230 229 228 227 229 232 233 233 230 225 225 227 229 228 225 224 225 223 220 214 211 209 207 208 207 204 203 199 193 191 191 193 199 204 209 214 215 221 235 320
246 248 243 230 224 227 230 233 235 236 233 229 235 238 221 200 201 212 217 220 223 226 230 231 230 230 229 229 231 234 236 234 230 227 229 231 232 230 229 228 227 224 217 213 211 210 211 210 208 208 206 201 201 203 208 216 223 235 247 253 262 281 305
250 250 245 238 231 226 227 232 233 233 234 226 225 239 240 225 214 217 222 225 225 227 230 232 232 232 232 231 231 233 235 236 234 231 231 233 234 235 234 233 231 228 222 216 214 214 215 214 212 211 211 209 209 211 216 224 231 241 256 266 274 287 298
249 251 250 247 240 229 225 230 233 233 234 228 222 230 239 240 231 225 229 232 234 237 235 235 236 235 236 235 234 234 234 236 237 235 234 235 237 238 238 237 237 234 228 221 218 218 218 218 216 215 216 215 216 218 222 228 235 241 255 266 272 280 287
232 240 250 252 246 234 222 226 233 235 235 234 229 229 236 242 237 231 236 240 242 245 242 239 239 238 239 239 238 238 237 237 238 238 237 237 238 240 241 240 240 239 236 229 223 222 223 222 220 220 221 221 222 225 227 231 237 243 252 261 266 270 274
221 226 240 251 249 237 222 223 232 235 235 235 233 231 234 239 239 236 237 241 246 250 250 245 240 239 242 242 241 242 241 240 241 240 240 239 238 241 242 242 242 242 241 237 231 228 228 227 226 225 226 227 227 229 231 234 240 245 251 259 263 265 266
214 217 226 241 248 242 230 225 228 230 232 233 233 233 232 236 240 240 238 241 246 250 254 253 246 241 243 246 246 246 245 244 244 242 242 241 239 240 241 242 243 243 244 242 238 235 233 233 231 230 231 232 232 233 235 237 243 249 255 259 263 265 264
208 212 220 232 241 244 239 231 226 225 227 230 231 233 233 235 238 239 239 241 243 247 252 255 252 245 242 242 246 251 251 247 246 245 244 243 242 241 242 242 243 244 245 245 243 241 239 238 237 236 237 238 238 238 238 240 244 252 257 261 264 266 265
204 209 218 225 232 237 237 231 226 224 225 227 230 232 233 234 236 237 239 241 245 249 251 252 252 249 243 240 240 249 255 252 249 248 247 247 246 245 244 244 243 244 245 247 246 244 242 242 242 242 242 243 243 242 242 243 247 253 258 261 264 268 269
201 209 218 221 223 228 230 229 227 224 222 222 226 231 233 234 236 237 239 242 245 249 251 250 249 248 246 243 241 245 252 255 254 251 250 250 250 248 247 246 245 244 245 247 248 246 244 243 244 245 246 246 247 246 245 246 250 254 258 261 264 268 270
204 212 217 217 219 225 228 227 224 222 221 220 222 226 230 233 235 238 241 242 243 247 250 248 245 245 244 242 244 247 250 253 254 252 252 253 252 251 250 249 248 246 244 245 247 248 247 244 244 245 247 248 249 249 248 248 250 255 258 261 264 266 269
210 216 219 219 220 223 225 225 222 219 219 220 222 224 226 229 233 239 243 244 245 246 247 245 241 241 240 239 243 248 251 253 252 251 252 253 254 254 252 251 251 249 247 245 247 249 249 247 246 245 246 248 249 249 249 248 250 254 258 260 263 266 267
210 216 221 223 222 221 223 225 224 223 223 225 226 225 226 229 232 237 241 244 244 243 244 243 240 238 238 237 239 246 252 254 253 250 250 251 254 255 253 252 252 252 250 247 246 249 250 250 249 247 247 247 249 249 249 249 250 253 256 259 262 265 266
211 214 221 225 224 223 225 226 227 227 227 229 231 229 228 229 231 234 238 241 241 239 241 243 241 238 237 235 235 240 247 252 254 252 250 250 252 254 255 252 251 251 251 249 247 248 250 251 250 249 249 248 248 249 250 249 250 253 256 258 261 264 266
211 213 219 223 223 224 225 227 230 229 228 230 232 233 232 230 229 230 234 239 240 239 239 241 241 238 236 234 232 233 241 249 253 254 253 252 252 254 255 253 250 250 251 251 249 248 248 249 249 249 250 249 249 249 250 251 252 254 256 258 260 262 263
212 213 218 220 220 222 224 226 229 231 232 232 233 234 234 233 230 229 233 238 240 240 239 241 242 239 236 235 231 228 235 245 251 254 254 254 255 256 258 256 252 249 250 250 250 248 248 248 248 248 250 250 249 249 250 252 252 254 257 258 258 260 262
212 213 217 220 220 220 221 224 227 230 232 234 235 235 235 234 233 232 234 239 241 242 241 243 245 242 238 237 233 227 231 241 249 254 256 256 258 260 261 260 256 251 249 250 250 249 249 248 247 247 248 249 250 249 249 250 251 252 255 257 258 259 260
211 212 215 219 220 220 219 222 226 229 230 232 233 234 234 234 235 235 236 239 242 244 244 244 247 246 240 237 235 230 231 238 246 252 256 259 261 262 262 261 259 255 251 250 250 249 248 248 246 246 246 247 249 249 249 249 250 250 252 255 258 258 257
211 213 215 216 220 221 221 222 224 226 228 230 231 232 232 232 234 236 236 239 243 246 246 246 248 248 243 239 238 235 234 239 245 249 255 261 263 263 262 260 259 257 252 250 249 249 248 248 247 246 246 246 247 248 249 249 249 250 251 253 256 256 255
219 218 218 219 221 224 224 224 224 225 228 230 230 231 231 230 231 234 235 237 241 244 247 248 249 250 246 241 239 238 237 240 245 248 253 259 262 262 260 259 259 258 254 251 250 249 249 248 249 248 247 246 246 247 248 249 248 248 249 250 252 254 253
225 222 221 222 223 225 225 224 225 225 227 229 229 229 230 230 232 234 235 237 239 242 245 247 249 249 247 244 242 241 241 243 245 248 252 256 260 260 259 258 259 258 256 253 250 250 251 250 249 249 248 246 246 246 246 247 247 245 246 247 249 251 252
224 224 222 223 224 226 226 225 225 225 225 226 227 227 228 230 232 234 235 237 239 239 241 245 247 249 249 247 246 245 245 247 248 249 251 254 257 258 258 257 258 257 255 252 249 249 251 251 250 249 248 247 246 245 245 245 245 244 244 245 248 249 250
219 222 223 223 225 227 227 226 226 225 225 226 226 225 226 229 231 232 234 236 237 238 239 242 245 249 251 250 249 248 249 251 251 250 251 253 255 256 256 256 256 255 252 248 246 246 250 251 250 248 247 246 245 244 243 242 242 242 242 243 245 246 246
220 222 223 224 226 227 228 228 228 227 226 226 226 225 226 228 230 232 233 233 234 236 238 240 243 247 250 251 250 249 250 252 252 250 250 253 254 254 254 254 254 252 248 243 241 242 246 249 248 246 245 244 243 241 240 240 239 238 238 239 240 242 243
220 221 223 225 226 228 229 229 230 229 228 227 226 226 226 227 230 232 232 232 232 234 237 239 241 244 248 250 250 249 249 251 252 251 251 253 253 253 252 251 250 248 244 239 237 239 243 245 245 244 242 240 239 237 236 235 234 233 233 234 236 238 240
219 217 220 224 226 228 230 230 230 231 231 229 228 227 227 227 230 232 232 231 230 232 235 237 239 243 245 247 248 248 248 249 250 251 251 251 252 251 250 248 248 245 241 236 235 237 240 241 241 241 239 237 236 234 233 232 231 230 230 232 234 236 239
218 215 217 221 224 227 229 230 229 230 231 231 229 229 229 229 231 233 233 231 228 229 232 235 237 240 242 243 244 246 246 246 248 250 251 251 250 249 248 247 246 243 239 236 235 236 238 239 239 238 237 235 234 233 232 232 232 230 230 232 235 237 241
218 215 215 219 222 225 228 229 229 229 231 231 229 228 228 230 231 233 234 232 229 228 229 232 234 236 238 239 241 243 244 244 246 247 249 250 248 246 245 245 243 241 238 236 235 235 236 237 236 236 234 234 233 233 234 235 236 235 234 235 239 242 246
216 215 216 218 220 223 226 227 228 229 229 230 229 226 226 229 231 234 234 232 229 228 228 230 231 233 235 236 238 239 241 241 243 245 247 247 245 242 242 242 241 240 238 235 234 234 234 234 234 234 234 234 235 236 238 239 241 241 240 239 241 244 246
216 215 217 218 220 222 225 226 227 227 228 228 227 224 225 227 230 232 233 232 230 229 230 230 230 231 232 233 234 236 238 239 240 243 244 245 242 239 238 239 239 238 236 233 232 233 233 233 234 233 234 236 236 238 240 241 242 243 242 238 238 242 243
217 217 218 219 219 221 225 226 226 226 225 225 223 220 221 224 227 229 231 231 230 230 230 230 229 229 230 231 231 233 236 238 239 240 242 242 239 235 234 235 236 236 234 232 232 233 233 233 233 232 234 236 236 237 239 240 241 241 240 237 236 239 241
219 219 219 219 218 220 224 226 225 224 221 219 218 216 216 219 222 225 228 230 231 231 231 230 228 227 227 228 229 230 233 234 235 237 238 238 235 233 233 234 234 235 234 232 233 235 234 232 232 232 234 236 235 235 237 240 242 243 243 241 240 241 244
Height
5883 5886 5888 5891 5894 5898 5900 5901 5902 5903 5905 5909 5910 5906 5904 5906 5909 5913 5915 5918 5920 5923 5925 5928 5930 5931 5933 5934 5935 5936 5938 5939 5941 5941 5942 5943 5944 5946 5947 5948 5949 5951 5952 5953 5954 5954 5955 5956 5956 5957 5957 5958 5958 5959 5960 5960 5961 5962 5963 5963 5964 5964 5965
5880 5882 5885 5890 5893 5896 5898 5899 5901 5903 5906 5909 5909 5905 5902 5905 5908 5911 5914 5916 5919 5922 5924 5926 5928 5930 5932 5933 5934 5936 5937 5938 5940 5941 5942 5943 5944 5945 5946 5947 5949 5950 5951 5952 5953 5954 5955 5956 5956 5957 5958 5958 5959 5959 5960 5961 5962 5962 5963 5964 5964 5965 5965
5878 5879 5883 5888 5891 5894 5895 5897 5900 5903 5906 5908 5908 5903 5901 5903 5907 5910 5912 5915 5917 5920 5922 5925 5927 5929 5930 5932 5934 5935 5937 5938 5939 5940 5941 5942 5943 5944 5945 5947 5948 5949 5951 5952 5953 5954 5955 5956 5957 5957 5958 5959 5959 5960 5961 5962 5962 5963 5964 5964 5965 5966 5966
5877 5878 5881 5885 5887 5890 5892 5894 5898 5902 5904 5905 5905 5901 5899 5901 5906 5909 5911 5913 5916 5918 5921 5923 5925 5927 5929 5931 5932 5934 5936 5937 5938 5939 5940 5941 5943 5944 5945 5946 5947 5949 5950 5951 5952 5953 5955 5956 5957 5958 5958 5959 5960 5960 5961 5962 5963 5963 5964 5965 5965 5966 5966
5876 5876 5880 5883 5885 5886 5889 5892 5896 5900 5902 5902 5902 5899 5897 5900 5904 5908 5911 5913 5915 5917 5919 5921 5923 5925 5928 5929 5931 5933 5935 5936 5938 5939 5939 5940 5942 5943 5945 5946 5947 5948 5950 5951 5952 5953 5954 5955 5956 5957 5958 5959 5960 5961 5961 5962 5963 5963 5964 5965 5966 5966 5966
5875 5876 5879 5882 5884 5885 5889 5892 5895 5897 5899 5901 5901 5897 5896 5899 5903 5907 5909 5912 5914 5916 5918 5920 5922 5925 5927 5928 5930 5931 5933 5935 5937 5938 5939 5940 5941 5943 5944 5945 5946 5948 5949 5950 5951 5953 5954 5955 5956 5957 5958 5959 5960 5961 5961 5962 5963 5963 5964 5964 5965 5966 5966
5873 5876 5877 5881 5884 5885 5888 5891 5893 5894 5896 5898 5900 5898 5895 5897 5901 5905 5908 5911 5913 5915 5917 5919 5921 5923 5925 5927 5929 5930 5932 5934 5936 5937 5938 5939 5941 5942 5943 5944 5945 5947 5948 5949 5951 5952 5953 5954 5956 5957 5958 5959 5960 5961 5961 5962 5962 5963 5963 5964 5965 5965 5966
5870 5872 5873 5877 5882 5884 5886 5888 5890 5893 5894 5896 5899 5901 5899 5898 5900 5904 5907 5910 5912 5914 5916 5917 5919 5921 5923 5925 5927 5929 5931 5932 5934 5936 5937 5938 5940 5941 5942 5944 5945 5946 5947 5949 5950 5951 5952 5953 5955 5956 5957 5958 5959 5960 5961 5962 5962 5963 5963 5963 5964 5965 5965
5866 5867 5868 5872 5877 5882 5885 5886 5888 5891 5893 5894 5896 5899 5900 5899 5900 5903 5906 5909 5911 5913 5915 5916 5918 5919 5921 5923 5925 5927 5929 5930 5932 5934 5936 5937 5939 5941 5942 5943 5944 5945 5946 5948 5949 5950 5951 5952 5954 5955 5956 5957 5958 5960 5960 5961 5962 5962 5963 5963 5964 5964 5965
5865 5863 5864 5867 5871 5879 5884 5885 5887 5889 5890 5891 5893 5895 5898 5899 5900 5902 5905 5907 5910 5911 5913 5914 5916 5918 5919 5921 5923 5925 5926 5928 5931 5933 5935 5937 5938 5940 5941 5942 5943 5944 5946 5947 5948 5949 5950 5951 5953 5954 5955 5956 5958 5959 5960 5961 5962 5962 5963 5963 5964 5965 5965
5863 5861 5862 5864 5866 5874 5881 5882 5883 5886 5887 5889 5891 5894 5897 5898 5899 5901 5903 5906 5907 5909 5911 5913 5915 5916 5917 5919 5920 5923 5925 5927 5929 5931 5933 5935 5937 5938 5939 5941 5942 5944 5945 5946 5947 5948 5949 5951 5952 5953 5954 5956 5957 5958 5959 5960 5961 5962 5963 5963 5964 5964 5965
5861 5861 5862 5862 5862 5869 5877 5879 5880 5882 5885 5888 5890 5892 5895 5897 5898 5900 5902 5904 5905 5907 5909 5911 5913 5915 5916 5917 5919 5921 5923 5925 5927 5929 5931 5933 5935 5936 5937 5939 5941 5942 5944 5945 5947 5948 5949 5950 5951 5953 5954 5955 5956 5957 5959 5960 5961 5962 5962 5963 5963 5964 5965
5857 5859 5860 5861 5861 5866 5871 5875 5877 5879 5882 5886 5888 5890 5892 5894 5896 5897 5900 5902 5903 5905 5907 5909 5912 5913 5914 5916 5917 5919 5921 5922 5924 5926 5928 5930 5932 5934 5935 5937 5939 5941 5942 5944 5945 5947 5948 5949 5950 5952 5952 5953 5955 5956 5958 5959 5960 5961 5962 5962 5963 5963 5964
5852 5856 5859 5860 5861 5863 5865 5870 5874 5877 5880 5883 5884 5886 5889 5891 5894 5895 5897 5899 5901 5903 5906 5907 5909 5911 5913 5914 5916 5918 5919 5920 5921 5923 5925 5927 5929 5931 5933 5935 5937 5939 5940 5941 5943 5945 5947 5948 5949 5950 5951 5952 5954 5955 5957 5958 5959 5960 5961 5961 5962 5962 5963
5848 5850 5854 5857 5859 5860 5862 5865 5869 5873 5877 5880 5881 5883 5885 5888 5891 5892 5894 5897 5899 5902 5904 5906 5907 5909 5911 5913 5914 5916 5917 5917 5919 5921 5923 5925 5927 5929 5931 5933 5935 5937 5938 5939 5941 5943 5944 5946 5947 5948 5950 5951 5952 5954 5955 5957 5958 5959 5959 5960 5961 5961 5962
5840 5842 5847 5851 5854 5856 5857 5860 5864 5869 5874 5877 5878 5880 5883 5885 5887 5889 5892 5895 5897 5899 5902 5904 5906 5907 5909 5911 5912 5913 5915 5916 5917 5919 5920 5922 5924 5926 5928 5930 5932 5934 5936 5937 5938 5940 5942 5943 5945 5946 5948 5949 5950 5952 5954 5955 5956 5957 5958 5958 5959 5960 5961
5833 5835 5840 5845 5847 5849 5851 5855 5860 5864 5868 5871 5874 5876 5878 5881 5883 5886 5889 5892 5895 5897 5899 5902 5904 5905 5907 5908 5910 5911 5912 5914 5915 5917 5918 5920 5921 5923 5925 5927 5929 5931 5933 5935 5935 5937 5939 5940 5942 5944 5945 5946 5948 5950 5952 5953 5954 5955 5956 5957 5958 5959 5959
5829 5831 5835 5839 5842 5845 5848 5851 5855 5858 5860 5864 5867 5869 5872 5876 5879 5882 5885 5889 5893 5895 5896 5899 5901 5903 5905 5906 5908 5909 5910 5912 5913 5915 5916 5918 5919 5920 5922 5924 5926 5928 5930 5932 5933 5934 5935 5937 5939 5941 5942 5944 5945 5947 5949 5951 5952 5953 5954 5954 5956 5957 5958
5824 5827 5830 5834 5839 5843 5845 5848 5852 5856 5858 5860 5862 5865 5869 5872 5876 5879 5882 5886 5889 5891 5893 5895 5899 5901 5903 5905 5906 5907 5909 5910 5911 5913 5914 5916 5917 5918 5919 5921 5923 5925 5927 5929 5930 5931 5932 5935 5937 5938 5940 5941 5942 5944 5946 5947 5949 5950 5951 5952 5953 5955 5956
5821 5824 5827 5830 5836 5841 5844 5846 5850 5853 5857 5859 5861 5863 5866 5868 5872 5876 5878 5881 5884 5888 5890 5893 5896 5898 5900 5902 5904 5906 5907 5908 5909 5910 5912 5914 5915 5916 5917 5918 5920 5922 5923 5925 5927 5928 5930 5932 5933 5935 5937 5938 5940 5941 5942 5944 5946 5947 5948 5949 5951 5952 5953
5819 5821 5823 5826 5832 5837 5840 5843 5845 5848 5852 5855 5858 5861 5863 5865 5868 5872 5874 5877 5881 5885 5888 5890 5893 5896 5898 5900 5902 5904 5905 5906 5907 5908 5910 5912 5913 5914 5915 5915 5917 5918 5920 5921 5923 5925 5926 5928 5930 5932 5933 5935 5937 5938 5939 5941 5943 5944 5945 5947 5948 5950 5951
5815 5817 5819 5822 5827 5831 5835 5838 5841 5845 5848 5851 5854 5858 5860 5863 5867 5869 5871 5874 5878 5882 5885 5887 5890 5893 5895 5897 5899 5902 5903 5904 5905 5906 5907 5909 5911 5912 5912 5913 5914 5916 5917 5918 5920 5921 5923 5924 5926 5928 5930 5931 5933 5935 5937 5938 5940 5941 5942 5943 5945 5947 5949
5811 5814 5816 5818 5822 5826 5830 5834 5837 5841 5845 5848 5852 5855 5857 5861 5865 5867 5869 5871 5875 5879 5881 5884 5887 5890 5893 5894 5897 5899 5901 5902 5903 5904 5905 5907 5908 5909 5910 5911 5912 5913 5914 5915 5916 5918 5920 5921 5922 5924 5926 5927 5929 5931 5933 5934 5936 5938 5939 5940 5942 5944 5946
5807 5811 5813 5815 5818 5822 5826 5830 5834 5838 5842 5845 5848 5851 5855 5858 5861 5863 5866 5869 5872 5875 5878 5881 5884 5887 5890 5892 5894 5896 5898 5899 5901 5902 5902 5904 5906 5907 5907 5908 5909 5910 5911 5912 5913 5914 5916 5917 5919 5920 5922 5924 5925 5927 5929 5931 5933 5935 5936 5937 5939 5941 5943
5804 5807 5809 5812 5815 5817 5822 5827 5830 5834 5838 5841 5844 5848 5851 5855 5857 5860 5863 5866 5869 5872 5875 5878 5882 5885 5887 5889 5891 5893 5895 5896 5898 5899 5900 5901 5903 5904 5905 5905 5906 5907 5908 5909 5910 5911 5913 5914 5915 5917 5919 5920 5922 5923 5925 5927 5929 5931 5933 5934 5935 5937 5940
5801 5804 5806 5808 5811 5814 5818 5822 5826 5830 5833 5837 5841 5844 5848 5851 5854 5857 5860 5864 5866 5869 5872 5876 5879 5882 5884 5886 5887 5889 5891 5893 5895 5896 5898 5899 5900 5901 5902 5902 5903 5904 5905 5906 5907 5908 5909 5911 5912 5914 5915 5917 5918 5920 5922 5924 5926 5928 5929 5930 5932 5933 5936
5797 5800 5802 5804 5807 5810 5813 5817 5821 5826 5829 5833 5838 5841 5845 5848 5850 5853 5857 5860 5863 5867 5870 5873 5876 5878 5880 5882 5884 5886 5888 5890 5892 5893 5894 5895 5897 5898 5899 5899 5900 5901 5902 5903 5904 5905 5907 5908 5909 5911 5912 5914 5915 5917 5919 5921 5923 5924 5926 5927 5928 5930 5932
5792 5796 5798 5800 5803 5805 5809 5813 5817 5821 5825 5829 5834 5838 5841 5844 5846 5850 5853 5857 5861 5866 5869 5869 5870 5873 5876 5879 5880 5882 5884 5886 5888 5890 5891 5892 5893 5895 5896 5896 5897 5898 5899 5900 5901 5902 5904 5905 5906 5908 5909 5910 5912 5914 5916 5917 5919 5921 5922 5923 5925 5926 5928
5789 5791 5794 5797 5799 5801 5805 5809 5813 5817 5821 5824 5829 5833 5837 5839 5842 5845 5849 5853 5859 5863 5864 5865 5866 5869 5872 5874 5877 5879 5881 5882 5884 5886 5887 5888 5890 5891 5892 5893 5894 5895 5896 5897 5898 5899 5900 5902 5903 5904 5906 5907 5909 5911 5913 5914 5916 5917 5919 5920 5921 5923 5924
5785 5788 5791 5793 5795 5798 5801 5805 5809 5813 5816 5820 5824 5829 5832 5835 5838 5841 5845 5850 5856 5858 5859 5861 5863 5865 5867 5870 5873 5875 5877 5878 5880 5882 5883 5884 5886 5888 5889 5890 5891 5892 5893 5893 5894 5896 5897 5899 5900 5901 5903 5904 5906 5907 5909 5910 5912 5914 5915 5916 5918 5919 5921
5781 5785 5788 5790 5792 5795 5797 5801 5805 5808 5812 5816 5820 5824 5828 5831 5834 5836 5840 5846 5851 5852 5853 5857 5859 5861 5863 5866 5868 5871 5873 5875 5877 5878 5879 5881 5882 5884 5885 5886 5887 5888 5889 5890 5891 5893 5894 5896 5897 5898 5900 5901 5902 5904 5905 5907 5909 5910 5912 5913 5914 5916 5917
5775 5780 5784 5786 5789 5791 5794 5797 5801 5805 5807 5811 5816 5820 5823 5827 5829 5831 5836 5841 5845 5846 5849 5852 5855 5857 5859 5862 5864 5866 5868 5870 5872 5874 5875 5877 5879 5880 5881 5882 5883 5885 5886 5887 5888 5890 5891 5893 5894 5895 5896 5898 5899 5901 5902 5903 5905 5907 5908 5909 5911 5912 5914
5770 5775 5780 5783 5786 5788 5791 5794 5798 5801 5803 5806 5811 5815 5819 5822 5824 5826 5830 5835 5838 5841 5843 5846 5849 5852 5855 5857 5859 5861 5863 5866 5868 5870 5871 5873 5875 5876 5877 5878 5880 5881 5882 5883 5884 5886 5888 5890 5891 5892 5893 5895 5896 5897 5898 5900 5902 5904 5905 5906 5908 5910 5911
5766 5770 5775 5779 5782 5786 5788 5791 5795 5797 5799 5802 5806 5810 5813 5816 5819 5821 5825 5829 5833 5835 5837 5839 5842 5847 5850 5852 5854 5856 5858 5861 5863 5865 5867 5869 5870 5871 5873 5874 5876 5877 5879 5880 5881 5883 5885 5886 5888 5889 5890 5891 5892 5894 5895 5897 5899 5901 5903 5904 5906 5907 5909
5762 5766 5770 5774 5779 5782 5785 5788 5791 5793 5795 5798 5802 5805 5808 5810 5813 5816 5820 5824 5827 5828 5830 5832 5837 5841 5844 5846 5848 5851 5853 5856 5858 5860 5861 5863 5865 5867 5869 5871 5872 5874 5875 5876 5877 5879 5881 5883 5884 5886 5887 5888 5889 5891 5893 5895 5896 5898 5900 5902 5904 5905 5906
5758 5762 5766 5770 5775 5778 5781 5784 5787 5789 5792 5795 5797 5800 5803 5805 5809 5811 5814 5818 5821 5822 5824 5827 5832 5836 5838 5840 5843 5845 5847 5850 5852 5854 5856 5858 5860 5863 5865 5866 5868 5869 5871 5872 5874 5875 5877 5879 5880 5882 5883 5885 5887 5889 5890 5892 5894 5895 5898 5900 5901 5902 5904
5754 5759 5762 5765 5769 5773 5776 5780 5782 5785 5788 5790 5793 5796 5799 5802 5804 5807 5810 5813 5815 5818 5820 5824 5827 5830 5832 5834 5836 5839 5841 5844 5846 5848 5850 5852 5855 5858 5859 5861 5863 5865 5867 5868 5870 5871 5873 5875 5877 5878 5880 5881 5884 5886 5888 5889 5891 5892 5894 5897 5898 5899 5901
5749 5754 5757 5761 5764 5768 5771 5775 5778 5781 5783 5785 5788 5792 5795 5797 5800 5803 5806 5809 5811 5813 5816 5819 5821 5823 5825 5827 5830 5833 5834 5836 5839 5841 5843 5846 5849 5852 5854 5855 5858 5860 5862 5864 5866 5867 5869 5871 5873 5875 5876 5878 5881 5883 5885 5886 5888 5889 5891 5893 5895 5896 5897